| time (UTC) | temp C | wind direction | speed KPH | gust KPH | rain 1hr cm | rain 24hr cm | rain mn cm | humidity % | barometer mb |
| 20260507083857 | 5 | 226 | 4.8 | 9.7 | 0.00 | 0.00 | 0.00 | 70 | 1013.6 |
| 20260507083353 | 5 | 197 | 6.4 | 9.7 | 0.00 | 0.00 | 0.00 | 69 | 1013.5 |
| 20260507082850 | 5 | 196 | 3.2 | 9.7 | 0.00 | 0.00 | 0.00 | 69 | 1013.6 |
| 20260507082345 | 5 | 217 | 6.4 | 9.7 | 0.00 | 0.00 | 0.00 | 68 | 1013.3 |
| 20260507081843 | 5 | 210 | 6.4 | 11.3 | 0.00 | 0.00 | 0.00 | 67 | 1013.6 |
| 20260507081338 | 5 | 187 | 6.4 | 11.3 | 0.00 | 0.00 | 0.00 | 68 | 1013.7 |
| 20260507080836 | 5 | 189 | 3.2 | 6.4 | 0.00 | 0.00 | 0.00 | 67 | 1013.8 |
| 20260507080331 | 5 | 180 | 4.8 | 11.3 | 0.00 | 0.00 | 0.00 | 67 | 1014.0 |
| 20260507075827 | 5 | 187 | 6.4 | 11.3 | 0.00 | 0.00 | 0.00 | 67 | 1014.1 |
| 20260507075323 | 6 | 201 | 4.8 | 6.4 | 0.00 | 0.00 | 0.00 | 66 | 1014.2 |
| 20260507074820 | 6 | 227 | 9.7 | 11.3 | 0.00 | 0.00 | 0.00 | 65 | 1014.2 |
| 20260507074317 | 6 | 192 | 4.8 | 14.5 | 0.00 | 0.00 | 0.00 | 65 | 1014.3 |
| 20260507073815 | 5 | 186 | 3.2 | 11.3 | 0.00 | 0.00 | 0.00 | 64 | 1014.2 |
| 20260507073311 | 5 | 192 | 3.2 | 6.4 | 0.00 | 0.00 | 0.00 | 64 | 1014.2 |
| 20260507072808 | 5 | 198 | 3.2 | 6.4 | 0.00 | 0.00 | 0.00 | 64 | 1014.1 |
| 20260507072307 | 5 | 189 | 3.2 | 6.4 | 0.00 | 0.00 | 0.00 | 63 | 1014.6 |
| 20260507071803 | 4 | 182 | 3.2 | 4.8 | 0.00 | 0.00 | 0.00 | 64 | 1014.6 |
| 20260507071259 | 4 | 186 | 1.6 | 3.2 | 0.00 | 0.00 | 0.00 | 64 | 1014.7 |
| 20260507070756 | 3 | 186 | 1.6 | 1.6 | 0.00 | 0.00 | 0.00 | 63 | 1014.7 |
| 20260507070254 | 3 | 182 | 1.6 | 3.2 | 0.00 | 0.00 | 0.00 | 64 | 1014.7 |
| 20260507065750 | 3 | 180 | 0.0 | 0.0 | 0.00 | 0.00 | 0.00 | 63 | 1014.9 |
| 20260507065247 | 3 | 178 | 0.0 | 0.0 | 0.00 | 0.00 | 0.00 | 64 | 1015.1 |
| 20260507064744 | 3 | 187 | 0.0 | 1.6 | 0.00 | 0.00 | 0.00 | 65 | 1015.0 |
| 20260507064243 | 3 | 187 | 0.0 | 1.6 | 0.00 | 0.00 | 0.00 | 66 | 1015.1 |
| 20260507063740 | 3 | 186 | 1.6 | 3.2 | 0.00 | 0.00 | 0.00 | 64 | 1015.2 |
| 20260507063237 | 3 | 189 | 1.6 | 1.6 | 0.00 | 0.00 | 0.00 | 68 | 1015.3 |
| 20260507062733 | 2 | 182 | 0.0 | 0.0 | 0.00 | 0.00 | 0.00 | 69 | 1015.4 |
| 20260507062231 | 2 | 182 | 0.0 | 0.0 | 0.00 | 0.00 | 0.00 | 67 | 1015.4 |
| 20260507061729 | 3 | 182 | 0.0 | 0.0 | 0.00 | 0.00 | 0.00 | 67 | 1015.5 |
| 20260507061227 | 3 | 182 | 0.0 | 0.0 | 0.00 | 0.00 | 0.00 | 66 | 1015.6 |
| 20260507060724 | 3 | 182 | 0.0 | 0.0 | 0.00 | 0.00 | 0.00 | 65 | 1015.5 |
| 20260507060221 | 3 | 183 | 0.0 | 0.0 | 0.00 | 0.00 | 0.00 | 64 | 1015.7 |
| 20260507055717 | 3 | 183 | 0.0 | 0.0 | 0.00 | 0.00 | 0.00 | 64 | 1015.8 |
| 20260507055213 | 4 | 182 | 0.0 | 0.0 | 0.00 | 0.00 | 0.00 | 62 | 1015.8 |
| 20260507054709 | 5 | 183 | 0.0 | 0.0 | 0.00 | 0.00 | 0.00 | 60 | 1016.1 |
| 20260507054206 | 5 | 183 | 0.0 | 0.0 | 0.00 | 0.00 | 0.00 | 61 | 1015.9 |
| 20260507053704 | 5 | 185 | 0.0 | 0.0 | 0.00 | 0.00 | 0.00 | 59 | 1015.9 |
| 20260507053201 | 5 | 185 | 1.6 | 3.2 | 0.00 | 0.00 | 0.00 | 59 | 1016.1 |
| 20260507052700 | 4 | 188 | 1.6 | 1.6 | 0.00 | 0.00 | 0.00 | 62 | 1016.2 |
| 20260507052155 | 4 | 185 | 0.0 | 0.0 | 0.00 | 0.00 | 0.00 | 62 | 1016.1 |
| 20260507051653 | 3 | 183 | 0.0 | 0.0 | 0.00 | 0.00 | 0.00 | 62 | 1016.1 |
| 20260507051150 | 3 | 188 | 0.0 | 0.0 | 0.00 | 0.00 | 0.00 | 63 | 1016.3 |
| 20260507050647 | 4 | 188 | 0.0 | 0.0 | 0.00 | 0.00 | 0.00 | 61 | 1016.1 |
| 20260507050143 | 4 | 187 | 0.0 | 0.0 | 0.00 | 0.00 | 0.00 | 62 | 1016.3 |
| 20260507045640 | 4 | 188 | 0.0 | 0.0 | 0.00 | 0.00 | 0.00 | 61 | 1016.3 |
| 20260507045137 | 4 | 188 | 0.0 | 0.0 | 0.00 | 0.00 | 0.00 | 61 | 1016.5 |
| 20260507044634 | 5 | 188 | 0.0 | 0.0 | 0.00 | 0.00 | 0.00 | 60 | 1016.4 |
| 20260507044131 | 5 | 188 | 0.0 | 0.0 | 0.00 | 0.00 | 0.00 | 58 | 1016.6 |
| 20260507043627 | 5 | 188 | 0.0 | 0.0 | 0.00 | 0.00 | 0.00 | 56 | 1016.6 |
| 20260507043124 | 4 | 188 | 0.0 | 0.0 | 0.00 | 0.00 | 0.00 | 57 | 1016.3 |
| 20260507042620 | 5 | 188 | 0.0 | 0.0 | 0.00 | 0.00 | 0.00 | 57 | 1016.5 |
| 20260507042115 | 5 | 189 | 0.0 | 0.0 | 0.00 | 0.00 | 0.00 | 55 | 1016.4 |
| 20260507041612 | 4 | 191 | 0.0 | 0.0 | 0.00 | 0.00 | 0.00 | 53 | 1016.6 |
| 20260507041109 | 5 | 194 | 0.0 | 0.0 | 0.00 | 0.00 | 0.00 | 54 | 1016.6 |
| 20260507040606 | 5 | 178 | 0.0 | 1.6 | 0.00 | 0.00 | 0.00 | 53 | 1016.7 |
| 20260507035558 | 6 | 186 | 0.0 | 0.0 | 0.00 | 0.00 | 0.00 | 51 | 1016.6 |
| 20260507035055 | 6 | 187 | 0.0 | 0.0 | 0.00 | 0.00 | 0.00 | 46 | 1016.6 |
| 20260507034552 | 6 | 187 | 0.0 | 0.0 | 0.00 | 0.00 | 0.00 | 46 | 1016.8 |
| 20260507034050 | 6 | 187 | 0.0 | 0.0 | 0.00 | 0.00 | 0.00 | 46 | 1016.6 |
| 20260507033548 | 6 | 187 | 0.0 | 0.0 | 0.00 | 0.00 | 0.00 | 45 | 1017.0 |
| 20260507033045 | 6 | 187 | 0.0 | 0.0 | 0.00 | 0.00 | 0.00 | 48 | 1016.8 |
| 20260507032542 | 6 | 187 | 0.0 | 0.0 | 0.00 | 0.00 | 0.00 | 50 | 1016.8 |
| 20260507032038 | 6 | 187 | 0.0 | 0.0 | 0.00 | 0.00 | 0.00 | 50 | 1016.8 |
| 20260507031534 | 6 | 187 | 0.0 | 0.0 | 0.00 | 0.00 | 0.00 | 49 | 1017.0 |
| 20260507031031 | 7 | 187 | 0.0 | 0.0 | 0.00 | 0.00 | 0.00 | 49 | 1017.1 |
| 20260507030528 | 7 | 187 | 0.0 | 0.0 | 0.00 | 0.00 | 0.00 | 49 | 1016.8 |
| 20260507030026 | 7 | 187 | 0.0 | 0.0 | 0.00 | 0.00 | 0.00 | 45 | 1017.1 |
| 20260507025522 | 7 | 186 | 0.0 | 0.0 | 0.00 | 0.00 | 0.00 | 46 | 1017.0 |
| 20260507025020 | 7 | 186 | 0.0 | 0.0 | 0.00 | 0.00 | 0.00 | 46 | 1017.0 |
| 20260507024518 | 7 | 186 | 0.0 | 0.0 | 0.00 | 0.00 | 0.00 | 45 | 1017.0 |
| 20260507024014 | 7 | 186 | 0.0 | 0.0 | 0.00 | 0.00 | 0.00 | 44 | 1016.9 |
| 20260507023510 | 7 | 187 | 0.0 | 0.0 | 0.00 | 0.00 | 0.00 | 44 | 1016.8 |
| 20260507023008 | 7 | 187 | 0.0 | 0.0 | 0.00 | 0.00 | 0.00 | 43 | 1017.1 |
| 20260507022504 | 8 | 187 | 0.0 | 0.0 | 0.00 | 0.00 | 0.00 | 41 | 1017.0 |
| 20260507022000 | 8 | 187 | 0.0 | 0.0 | 0.00 | 0.00 | 0.00 | 42 | 1016.9 |
| 20260507021455 | 9 | 187 | 0.0 | 0.0 | 0.00 | 0.00 | 0.00 | 41 | 1017.1 |
| 20260507020953 | 9 | 187 | 0.0 | 0.0 | 0.00 | 0.00 | 0.00 | 39 | 1016.8 |
| 20260507020450 | 10 | 187 | 0.0 | 0.0 | 0.00 | 0.00 | 0.00 | 37 | 1016.9 |
| 20260507015947 | 9 | 190 | 0.0 | 0.0 | 0.00 | 0.00 | 0.00 | 36 | 1016.8 |
| 20260507015445 | 10 | 188 | 0.0 | 0.0 | 0.00 | 0.00 | 0.00 | 36 | 1016.9 |
| 20260507014941 | 10 | 187 | 0.0 | 0.0 | 0.00 | 0.00 | 0.00 | 34 | 1016.8 |
| 20260507014438 | 10 | 188 | 0.0 | 0.0 | 0.00 | 0.00 | 0.00 | 34 | 1016.9 |
| 20260507013934 | 10 | 187 | 0.0 | 0.0 | 0.00 | 0.00 | 0.00 | 33 | 1016.8 |
| 20260507013431 | 11 | 188 | 0.0 | 0.0 | 0.00 | 0.00 | 0.00 | 34 | 1016.8 |
| 20260507012929 | 11 | 193 | 0.0 | 1.6 | 0.00 | 0.00 | 0.00 | 33 | 1016.6 |
| 20260507012426 | 11 | 190 | 1.6 | 3.2 | 0.00 | 0.00 | 0.00 | 33 | 1016.8 |
| 20260507011922 | 11 | 189 | 0.0 | 1.6 | 0.00 | 0.00 | 0.00 | 34 | 1016.8 |
| 20260507011420 | 11 | 189 | 0.0 | 1.6 | 0.00 | 0.00 | 0.00 | 33 | 1016.6 |
| 20260507010919 | 12 | 205 | 0.0 | 6.4 | 0.00 | 0.00 | 0.00 | 32 | 1016.8 |
| 20260507010415 | 12 | 183 | 1.6 | 6.4 | 0.00 | 0.00 | 0.00 | 32 | 1016.8 |
| 20260507005912 | 13 | 225 | 1.6 | 4.8 | 0.00 | 0.00 | 0.00 | 31 | 1017.1 |
| 20260507005409 | 13 | 304 | 1.6 | 4.8 | 0.00 | 0.00 | 0.00 | 30 | 1016.9 |
| 20260507004905 | 13 | 195 | 1.6 | 6.4 | 0.00 | 0.00 | 0.00 | 31 | 1016.9 |
| 20260507004402 | 13 | 196 | 1.6 | 4.8 | 0.00 | 0.00 | 0.00 | 29 | 1016.8 |
| 20260507003900 | 13 | 186 | 1.6 | 3.2 | 0.00 | 0.00 | 0.00 | 30 | 1017.1 |
| 20260507003355 | 13 | 191 | 1.6 | 3.2 | 0.00 | 0.00 | 0.00 | 31 | 1017.0 |
| 20260507002850 | 13 | 208 | 3.2 | 4.8 | 0.00 | 0.00 | 0.00 | 30 | 1017.2 |
| 20260507002347 | 14 | 293 | 4.8 | 9.7 | 0.00 | 0.00 | 0.00 | 28 | 1017.1 |
| 20260507001844 | 14 | 216 | 1.6 | 6.4 | 0.00 | 0.00 | 0.00 | 28 | 1017.0 |
| 20260507001341 | 14 | 181 | 0.0 | 1.6 | 0.00 | 0.00 | 0.00 | 29 | 1017.0 |
| 20260507000837 | 15 | 242 | 4.8 | 6.4 | 0.00 | 0.00 | 0.00 | 27 | 1017.1 |
| 20260507000333 | 14 | 193 | 1.6 | 4.8 | 0.00 | 0.00 | 0.00 | 28 | 1017.1 |
| 20260506235829 | 14 | 201 | 3.2 | 6.4 | 0.00 | 0.00 | 0.00 | 28 | 1017.2 |
| 20260506235326 | 15 | 334 | 9.7 | 12.9 | 0.00 | 0.00 | 0.00 | 28 | 1017.3 |
| 20260506234822 | 15 | 316 | 4.8 | 11.3 | 0.00 | 0.00 | 0.00 | 28 | 1017.4 |
| 20260506234320 | 15 | 187 | 4.8 | 12.9 | 0.00 | 0.00 | 0.00 | 27 | 1017.2 |
| 20260506233818 | 15 | 246 | 4.8 | 6.4 | 0.00 | 0.00 | 0.00 | 29 | 1017.2 |
| 20260506233313 | 15 | 257 | 3.2 | 4.8 | 0.00 | 0.00 | 0.00 | 29 | 1017.3 |
| 20260506232810 | 15 | 211 | 4.8 | 9.7 | 0.00 | 0.00 | 0.00 | 27 | 1017.4 |
| 20260506232306 | 15 | 226 | 4.8 | 11.3 | 0.00 | 0.00 | 0.00 | 29 | 1017.6 |
| 20260506231803 | 14 | 251 | 4.8 | 11.3 | 0.00 | 0.00 | 0.00 | 28 | 1017.6 |
| 20260506231301 | 15 | 319 | 6.4 | 9.7 | 0.00 | 0.00 | 0.00 | 27 | 1017.7 |
| 20260506230758 | 15 | 188 | 16.1 | 22.5 | 0.00 | 0.00 | 0.00 | 27 | 1017.5 |
| 20260506230255 | 15 | 184 | 1.6 | 4.8 | 0.00 | 0.00 | 0.00 | 31 | 1017.5 |
| 20260506225751 | 14 | 163 | 3.2 | 6.4 | 0.00 | 0.00 | 0.00 | 31 | 1017.5 |
| 20260506225248 | 14 | 199 | 3.2 | 6.4 | 0.00 | 0.00 | 0.00 | 30 | 1017.7 |
| 20260506224744 | 13 | 160 | 3.2 | 3.2 | 0.00 | 0.00 | 0.00 | 31 | 1017.7 |
| 20260506224242 | 13 | 197 | 3.2 | 9.7 | 0.00 | 0.00 | 0.00 | 32 | 1017.8 |
| 20260506223738 | 13 | 316 | 6.4 | 16.1 | 0.00 | 0.00 | 0.00 | 29 | 1017.8 |
| 20260506223233 | 15 | 344 | 4.8 | 12.9 | 0.00 | 0.00 | 0.00 | 29 | 1017.9 |
| 20260506222731 | 15 | 304 | 14.5 | 17.7 | 0.00 | 0.00 | 0.00 | 28 | 1017.8 |
| 20260506222226 | 15 | 123 | 14.5 | 22.5 | 0.00 | 0.00 | 0.00 | 26 | 1017.8 |
| 20260506221725 | 15 | 291 | 3.2 | 9.7 | 0.00 | 0.00 | 0.00 | 31 | 1017.9 |
| 20260506221223 | 13 | 207 | 3.2 | 6.4 | 0.00 | 0.00 | 0.00 | 30 | 1018.0 |
| 20260506220720 | 13 | 285 | 4.8 | 11.3 | 0.00 | 0.00 | 0.00 | 30 | 1017.9 |
| 20260506220220 | 14 | 343 | 6.4 | 12.9 | 0.00 | 0.00 | 0.00 | 28 | 1018.1 |
| 20260506215717 | 14 | 243 | 3.2 | 9.7 | 0.00 | 0.00 | 0.00 | 28 | 1018.0 |
| 20260506215212 | 15 | 259 | 4.8 | 12.9 | 0.00 | 0.00 | 0.00 | 28 | 1018.0 |
| 20260506214709 | 15 | 174 | 6.4 | 12.9 | 0.00 | 0.00 | 0.00 | 25 | 1018.0 |
| 20260506214207 | 16 | 261 | 3.2 | 14.5 | 0.00 | 0.00 | 0.00 | 27 | 1018.4 |
| 20260506213705 | 16 | 214 | 1.6 | 11.3 | 0.00 | 0.00 | 0.00 | 30 | 1018.3 |
| 20260506213202 | 16 | 187 | 4.8 | 12.9 | 0.00 | 0.00 | 0.00 | 29 | 1018.4 |
| 20260506212659 | 16 | 340 | 11.3 | 14.5 | 0.00 | 0.00 | 0.00 | 26 | 1018.4 |
| 20260506212154 | 16 | 203 | 3.2 | 9.7 | 0.00 | 0.00 | 0.00 | 31 | 1018.3 |
| 20260506211650 | 15 | 233 | 6.4 | 12.9 | 0.00 | 0.00 | 0.00 | 28 | 1018.5 |
| 20260506211146 | 16 | 341 | 9.7 | 17.7 | 0.00 | 0.00 | 0.00 | 27 | 1018.4 |
| 20260506210643 | 15 | 191 | 1.6 | 6.4 | 0.00 | 0.00 | 0.00 | 34 | 1018.6 |
| 20260506210140 | 13 | 197 | 3.2 | 4.8 | 0.00 | 0.00 | 0.00 | 30 | 1018.7 |
| 20260506205637 | 13 | 289 | 6.4 | 9.7 | 0.00 | 0.00 | 0.00 | 29 | 1018.9 |
| 20260506205132 | 14 | 345 | 3.2 | 9.7 | 0.00 | 0.00 | 0.00 | 30 | 1018.9 |
| 20260506204630 | 15 | 263 | 8.0 | 12.9 | 0.00 | 0.00 | 0.00 | 29 | 1019.0 |
| 20260506204127 | 14 | 179 | 6.4 | 9.7 | 0.00 | 0.00 | 0.00 | 30 | 1019.2 |
| 20260506203625 | 15 | 212 | 9.7 | 14.5 | 0.00 | 0.00 | 0.00 | 28 | 1019.1 |
| 20260506203121 | 13 | 219 | 6.4 | 14.5 | 0.00 | 0.00 | 0.00 | 31 | 1019.2 |
| 20260506202619 | 14 | 280 | 8.0 | 12.9 | 0.00 | 0.00 | 0.00 | 29 | 1019.1 |
| 20260506202115 | 15 | 254 | 6.4 | 24.1 | 0.00 | 0.00 | 0.00 | 29 | 1019.2 |
| 20260506201613 | 14 | 242 | 3.2 | 12.9 | 0.00 | 0.00 | 0.00 | 37 | 1019.2 |
| 20260506201109 | 14 | 336 | 8.0 | 14.5 | 0.00 | 0.00 | 0.00 | 30 | 1019.3 |
| 20260506200605 | 14 | 228 | 4.8 | 9.7 | 0.00 | 0.00 | 0.00 | 31 | 1019.3 |
| 20260506195559 | 15 | 220 | 4.8 | 14.5 | 0.00 | 0.00 | 0.00 | 31 | 1019.4 |
| 20260506195055 | 14 | 214 | 4.8 | 12.9 | 0.00 | 0.00 | 0.00 | 37 | 1019.7 |
| 20260506194553 | 15 | 269 | 8.0 | 14.5 | 0.00 | 0.00 | 0.00 | 29 | 1019.6 |
| 20260506194049 | 14 | 344 | 8.0 | 12.9 | 0.00 | 0.00 | 0.00 | 31 | 1019.6 |
| 20260506193547 | 13 | 272 | 6.4 | 16.1 | 0.00 | 0.00 | 0.00 | 34 | 1019.7 |
| 20260506193044 | 13 | 347 | 4.8 | 11.3 | 0.00 | 0.00 | 0.00 | 32 | 1019.6 |
| 20260506192541 | 15 | 240 | 4.8 | 9.7 | 0.00 | 0.00 | 0.00 | 27 | 1019.7 |
| 20260506192036 | 15 | 285 | 8.0 | 17.7 | 0.00 | 0.00 | 0.00 | 33 | 1019.7 |
| 20260506191534 | 14 | 328 | 12.9 | 20.9 | 0.00 | 0.00 | 0.00 | 30 | 1019.8 |
| 20260506191029 | 14 | 349 | 9.7 | 12.9 | 0.00 | 0.00 | 0.00 | 30 | 1019.8 |
| 20260506190527 | 14 | 333 | 6.4 | 22.5 | 0.00 | 0.00 | 0.00 | 34 | 1019.9 |
| 20260506190024 | 14 | 331 | 8.0 | 14.5 | 0.00 | 0.00 | 0.00 | 33 | 1019.8 |
| 20260506185521 | 13 | 259 | 11.3 | 16.1 | 0.00 | 0.00 | 0.00 | 32 | 1020.0 |
| 20260506185017 | 13 | 188 | 1.6 | 16.1 | 0.00 | 0.00 | 0.00 | 36 | 1019.9 |
| 20260506184515 | 13 | 324 | 9.7 | 17.7 | 0.00 | 0.00 | 0.00 | 32 | 1019.9 |
| 20260506184012 | 13 | 195 | 6.4 | 17.7 | 0.00 | 0.00 | 0.00 | 32 | 1020.3 |
| 20260506183508 | 13 | 331 | 11.3 | 16.1 | 0.00 | 0.00 | 0.00 | 32 | 1020.1 |
| 20260506183005 | 14 | 194 | 6.4 | 11.3 | 0.00 | 0.00 | 0.00 | 35 | 1020.2 |
| 20260506182502 | 13 | 34 | 11.3 | 17.7 | 0.00 | 0.00 | 0.00 | 36 | 1020.3 |
| 20260506181959 | 13 | 201 | 3.2 | 11.3 | 0.00 | 0.00 | 0.00 | 30 | 1020.5 |
| 20260506181457 | 13 | 203 | 6.4 | 14.5 | 0.00 | 0.00 | 0.00 | 34 | 1020.5 |
| 20260506180953 | 13 | 188 | 3.2 | 14.5 | 0.00 | 0.00 | 0.00 | 34 | 1020.7 |
| 20260506180450 | 13 | 140 | 4.8 | 14.5 | 0.00 | 0.00 | 0.00 | 34 | 1020.7 |
| 20260506175946 | 13 | 202 | 8.0 | 17.7 | 0.00 | 0.00 | 0.00 | 35 | 1020.7 |
| 20260506175443 | 13 | 274 | 6.4 | 14.5 | 0.00 | 0.00 | 0.00 | 33 | 1020.8 |
| 20260506174940 | 13 | 211 | 11.3 | 16.1 | 0.00 | 0.00 | 0.00 | 35 | 1020.7 |
| 20260506174438 | 13 | 11 | 16.1 | 20.9 | 0.00 | 0.00 | 0.00 | 33 | 1020.7 |
| 20260506173934 | 13 | 353 | 12.9 | 22.5 | 0.00 | 0.00 | 0.00 | 35 | 1020.8 |
| 20260506173431 | 13 | 150 | 4.8 | 16.1 | 0.00 | 0.00 | 0.00 | 36 | 1020.8 |
| 20260506172928 | 13 | 339 | 8.0 | 12.9 | 0.00 | 0.00 | 0.00 | 39 | 1020.9 |
| 20260506172426 | 12 | 317 | 3.2 | 12.9 | 0.00 | 0.00 | 0.00 | 40 | 1020.9 |
| 20260506171922 | 12 | 333 | 9.7 | 22.5 | 0.00 | 0.00 | 0.00 | 35 | 1020.8 |
| 20260506171420 | 12 | 177 | 8.0 | 17.7 | 0.00 | 0.00 | 0.00 | 35 | 1021.0 |
| 20260506170918 | 11 | 212 | 6.4 | 16.1 | 0.00 | 0.00 | 0.00 | 35 | 1021.1 |
| 20260506170414 | 12 | 356 | 6.4 | 17.7 | 0.00 | 0.00 | 0.00 | 33 | 1021.1 |
| 20260506165913 | 12 | 232 | 4.8 | 11.3 | 0.00 | 0.00 | 0.00 | 37 | 1021.1 |
| 20260506165410 | 12 | 193 | 4.8 | 12.9 | 0.00 | 0.00 | 0.00 | 37 | 1021.1 |
| 20260506164906 | 11 | 300 | 9.7 | 16.1 | 0.00 | 0.00 | 0.00 | 34 | 1021.1 |
| 20260506164403 | 11 | 315 | 9.7 | 17.7 | 0.00 | 0.00 | 0.00 | 35 | 1021.3 |
| 20260506163901 | 11 | 340 | 6.4 | 11.3 | 0.00 | 0.00 | 0.00 | 37 | 1021.3 |
| 20260506163355 | 11 | 149 | 8.0 | 11.3 | 0.00 | 0.00 | 0.00 | 38 | 1021.2 |
| 20260506162850 | 11 | 342 | 16.1 | 24.1 | 0.00 | 0.00 | 0.00 | 35 | 1021.2 |
| 20260506162349 | 11 | 349 | 6.4 | 9.7 | 0.00 | 0.00 | 0.00 | 35 | 1021.4 |
| 20260506161846 | 10 | 347 | 9.7 | 16.1 | 0.00 | 0.00 | 0.00 | 35 | 1021.3 |
| 20260506161343 | 10 | 280 | 9.7 | 20.9 | 0.00 | 0.00 | 0.00 | 36 | 1021.3 |
| 20260506160841 | 10 | 205 | 3.2 | 17.7 | 0.00 | 0.00 | 0.00 | 37 | 1021.3 |
| 20260506160337 | 10 | 323 | 3.2 | 9.7 | 0.00 | 0.00 | 0.00 | 40 | 1021.2 |
| 20260506155836 | 10 | 248 | 4.8 | 16.1 | 0.00 | 0.00 | 0.00 | 38 | 1020.9 |
| 20260506155332 | 11 | 192 | 3.2 | 12.9 | 0.00 | 0.00 | 0.00 | 42 | 1021.0 |
| 20260506153444 | 11 | 339 | 6.4 | 12.9 | 0.00 | 0.00 | 0.00 | 39 | 1021.1 |
| 20260506152942 | 10 | 326 | 12.9 | 17.7 | 0.00 | 0.00 | 0.00 | 36 | 1021.2 |
| 20260506152438 | 10 | 318 | 6.4 | 20.9 | 0.00 | 0.00 | 0.00 | 38 | 1021.0 |
| 20260506151937 | 10 | 313 | 11.3 | 17.7 | 0.00 | 0.00 | 0.00 | 40 | 1020.9 |
| 20260506151434 | 10 | 314 | 6.4 | 24.1 | 0.00 | 0.00 | 0.00 | 38 | 1021.1 |
| 20260506150932 | 10 | 282 | 6.4 | 14.5 | 0.00 | 0.00 | 0.00 | 45 | 1021.1 |
| 20260506150427 | 10 | 261 | 4.8 | 9.7 | 0.00 | 0.00 | 0.00 | 44 | 1021.3 |
| 20260506145925 | 10 | 292 | 6.4 | 12.9 | 0.00 | 0.00 | 0.00 | 45 | 1021.3 |
| 20260506145421 | 10 | 299 | 4.8 | 14.5 | 0.00 | 0.00 | 0.00 | 41 | 1021.3 |
| 20260506144918 | 10 | 168 | 14.5 | 17.7 | 0.00 | 0.00 | 0.00 | 39 | 1021.2 |
| 20260506144415 | 10 | 353 | 9.7 | 12.9 | 0.00 | 0.00 | 0.00 | 39 | 1021.3 |
| 20260506143914 | 10 | 300 | 4.8 | 12.9 | 0.00 | 0.00 | 0.00 | 43 | 1021.4 |
| 20260506143410 | 10 | 187 | 1.6 | 9.7 | 0.00 | 0.00 | 0.00 | 41 | 1021.3 |
| 20260506142908 | 10 | 337 | 6.4 | 9.7 | 0.00 | 0.00 | 0.00 | 42 | 1021.1 |
| 20260506142406 | 9 | 263 | 3.2 | 11.3 | 0.00 | 0.00 | 0.00 | 42 | 1021.2 |
| 20260506141904 | 8 | 346 | 6.4 | 12.9 | 0.00 | 0.00 | 0.00 | 44 | 1021.3 |
| 20260506141401 | 8 | 56 | 6.4 | 12.9 | 0.00 | 0.00 | 0.00 | 42 | 1021.2 |
| 20260506140859 | 8 | 333 | 3.2 | 6.4 | 0.00 | 0.00 | 0.00 | 46 | 1021.1 |
| 20260506140356 | 8 | 168 | 6.4 | 11.3 | 0.00 | 0.00 | 0.00 | 45 | 1021.3 |
| 20260506135853 | 8 | 286 | 4.8 | 9.7 | 0.00 | 0.00 | 0.00 | 47 | 1021.3 |
| 20260506135350 | 8 | 299 | 4.8 | 9.7 | 0.00 | 0.00 | 0.00 | 47 | 1021.2 |
| 20260506134846 | 7 | 313 | 4.8 | 6.4 | 0.00 | 0.00 | 0.00 | 52 | 1021.2 |
| 20260506134343 | 6 | 183 | 1.6 | 3.2 | 0.00 | 0.00 | 0.00 | 55 | 1021.2 |
| 20260506133840 | 6 | 331 | 6.4 | 6.4 | 0.00 | 0.00 | 0.00 | 55 | 1021.1 |
| 20260506133336 | 6 | 175 | 0.0 | 3.2 | 0.00 | 0.00 | 0.00 | 55 | 1021.2 |
| 20260506132833 | 5 | 328 | 6.4 | 6.4 | 0.00 | 0.00 | 0.00 | 57 | 1021.1 |
| 20260506132330 | 5 | 187 | 4.8 | 6.4 | 0.00 | 0.00 | 0.00 | 61 | 1021.2 |
| 20260506131828 | 4 | 198 | 4.8 | 6.4 | 0.00 | 0.00 | 0.00 | 61 | 1021.2 |
| 20260506131324 | 3 | 207 | 3.2 | 4.8 | 0.00 | 0.00 | 0.00 | 63 | 1021.2 |
| 20260506130822 | 3 | 240 | 4.8 | 4.8 | 0.00 | 0.00 | 0.00 | 64 | 1021.1 |
| 20260506130318 | 3 | 184 | 0.0 | 1.6 | 0.00 | 0.00 | 0.00 | 66 | 1021.0 |
| 20260506125816 | 2 | 174 | 0.0 | 1.6 | 0.00 | 0.00 | 0.00 | 67 | 1021.1 |
| 20260506125314 | 2 | 171 | 0.0 | 0.0 | 0.00 | 0.00 | 0.00 | 68 | 1021.0 |
| 20260506124812 | 1 | 148 | 1.6 | 3.2 | 0.00 | 0.00 | 0.00 | 69 | 1021.0 |
| 20260506124309 | 1 | 192 | 1.6 | 3.2 | 0.00 | 0.00 | 0.00 | 70 | 1020.7 |
| 20260506123806 | 0 | 159 | 3.2 | 3.2 | 0.00 | 0.00 | 0.00 | 71 | 1020.8 |
| 20260506123305 | 0 | 160 | 1.6 | 4.8 | 0.00 | 0.00 | 0.00 | 72 | 1020.8 |
| 20260506122801 | 0 | 239 | 3.2 | 4.8 | 0.00 | 0.00 | 0.00 | 73 | 1020.7 |
| 20260506122258 | 0 | 304 | 4.8 | 4.8 | 0.00 | 0.00 | 0.00 | 74 | 1020.6 |
| 20260506121757 | 0 | 237 | 3.2 | 4.8 | 0.00 | 0.00 | 0.00 | 72 | 1020.3 |
| 20260506121253 | 0 | 190 | 1.6 | 1.6 | 0.00 | 0.00 | 0.00 | 72 | 1020.3 |
| 20260506120751 | 0 | 179 | 0.0 | 0.0 | 0.00 | 0.00 | 0.00 | 73 | 1020.3 |
| 20260506120248 | 0 | 187 | 0.0 | 0.0 | 0.00 | 0.00 | 0.00 | 74 | 1020.5 |
| 20260506115746 | 0 | 202 | 3.2 | 3.2 | 0.00 | 0.00 | 0.00 | 75 | 1020.2 |
| 20260506115244 | -1 | 179 | 0.0 | 0.0 | 0.00 | 0.00 | 0.00 | 76 | 1020.2 |
| 20260506114741 | 0 | 182 | 0.0 | 0.0 | 0.00 | 0.00 | 0.00 | 75 | 1020.2 |
| 20260506114239 | 0 | 173 | 0.0 | 1.6 | 0.00 | 0.00 | 0.00 | 75 | 1020.2 |
| 20260506113737 | -1 | 187 | 0.0 | 0.0 | 0.00 | 0.00 | 0.00 | 78 | 1020.0 |
| 20260506113234 | -1 | 187 | 0.0 | 0.0 | 0.00 | 0.00 | 0.00 | 80 | 1020.0 |
| 20260506112730 | -1 | 186 | 0.0 | 0.0 | 0.00 | 0.00 | 0.00 | 80 | 1019.9 |
| 20260506112228 | -1 | 186 | 0.0 | 0.0 | 0.00 | 0.00 | 0.00 | 80 | 1019.8 |
| 20260506111725 | -1 | 186 | 0.0 | 0.0 | 0.00 | 0.00 | 0.00 | 78 | 1019.6 |
| 20260506111224 | -1 | 186 | 0.0 | 0.0 | 0.00 | 0.00 | 0.00 | 78 | 1019.9 |
| 20260506110720 | -1 | 186 | 0.0 | 0.0 | 0.00 | 0.00 | 0.00 | 78 | 1019.8 |
| 20260506110218 | -1 | 186 | 0.0 | 0.0 | 0.00 | 0.00 | 0.00 | 77 | 1019.4 |
| 20260506105714 | -1 | 186 | 0.0 | 0.0 | 0.00 | 0.00 | 0.00 | 76 | 1019.5 |
| 20260506105211 | -1 | 187 | 0.0 | 0.0 | 0.00 | 0.00 | 0.00 | 76 | 1019.2 |
| 20260506104709 | -1 | 187 | 0.0 | 0.0 | 0.00 | 0.00 | 0.00 | 76 | 1019.4 |
| 20260506104207 | -1 | 187 | 0.0 | 0.0 | 0.00 | 0.00 | 0.00 | 76 | 1019.4 |
| 20260506103703 | -1 | 187 | 0.0 | 0.0 | 0.00 | 0.00 | 0.00 | 76 | 1019.4 |
| 20260506103200 | -1 | 187 | 0.0 | 0.0 | 0.00 | 0.00 | 0.00 | 76 | 1019.5 |
| 20260506102658 | -1 | 186 | 0.0 | 0.0 | 0.00 | 0.00 | 0.00 | 75 | 1019.5 |
| 20260506102156 | -1 | 186 | 0.0 | 0.0 | 0.00 | 0.00 | 0.00 | 73 | 1019.3 |
| 20260506101652 | 0 | 186 | 0.0 | 0.0 | 0.00 | 0.00 | 0.00 | 73 | 1019.3 |
| 20260506101149 | 0 | 187 | 0.0 | 0.0 | 0.00 | 0.00 | 0.00 | 72 | 1019.3 |
| 20260506100648 | 0 | 188 | 0.0 | 0.0 | 0.00 | 0.00 | 0.00 | 70 | 1019.3 |
| 20260506100145 | 0 | 190 | 0.0 | 0.0 | 0.00 | 0.00 | 0.00 | 70 | 1019.2 |
| 20260506095644 | 0 | 202 | 0.0 | 0.0 | 0.00 | 0.00 | 0.00 | 70 | 1019.3 |
| 20260506095140 | 0 | 188 | 0.0 | 0.0 | 0.00 | 0.00 | 0.00 | 69 | 1019.0 |
| 20260506094637 | 0 | 188 | 0.0 | 1.6 | 0.00 | 0.00 | 0.00 | 70 | 1019.0 |
| 20260506094135 | 0 | 190 | 1.6 | 1.6 | 0.00 | 0.00 | 0.00 | 70 | 1019.3 |
| 20260506093634 | 0 | 191 | 1.6 | 1.6 | 0.00 | 0.00 | 0.00 | 69 | 1019.2 |
| 20260506093130 | 0 | 203 | 1.6 | 3.2 | 0.00 | 0.00 | 0.00 | 68 | 1018.9 |
| 20260506092628 | 0 | 201 | 1.6 | 3.2 | 0.00 | 0.00 | 0.00 | 68 | 1018.9 |
| 20260506092125 | 0 | 197 | 1.6 | 3.2 | 0.00 | 0.00 | 0.00 | 67 | 1019.0 |
| 20260506091623 | 0 | 213 | 3.2 | 3.2 | 0.00 | 0.00 | 0.00 | 68 | 1018.9 |
| 20260506091120 | 0 | 199 | 1.6 | 3.2 | 0.00 | 0.00 | 0.00 | 68 | 1018.8 |
| 20260506090618 | 0 | 202 | 3.2 | 3.2 | 0.00 | 0.00 | 0.00 | 68 | 1018.8 |
| 20260506090114 | 0 | 206 | 1.6 | 1.6 | 0.00 | 0.00 | 0.00 | 68 | 1018.9 |
| 20260506085611 | 0 | 208 | 1.6 | 3.2 | 0.00 | 0.00 | 0.00 | 66 | 1019.0 |
| 20260506085108 | 1 | 216 | 3.2 | 3.2 | 0.00 | 0.00 | 0.00 | 66 | 1018.9 |
| 20260506084604 | 0 | 207 | 1.6 | 3.2 | 0.00 | 0.00 | 0.00 | 66 | 1018.8 |